Regional Weather Roundup
Issued by NWS

Home | Current Version | Previous Version | Text Only | Print | Product List | Glossary Off
Versions: 1 2 3 4 5 6 7 8 9 10 11 12 13 14 15 16 17 18 19 20 21 22 23 24 25 26 27 28 29 30 31 32 33 34 35 36 37 38 39 40 41 42 43 44 45 46 47 48 49 50

000
ASUS43 KDMX 310507
RWRIA

WEATHER ROUNDUP FOR IOWA
NATIONAL WEATHER SERVICE DES MOINES IA
1200 AM CDT MON AUG 31 2015

NOTE: "FAIR" INDICATES FEW OR NO CLOUDS BELOW 12,000 FEET WITH NO
SIGNIFICANT WEATHER AND/OR OBSTRUCTIONS TO VISIBILITY.

* - THESE STATIONS ARE NOT NWS STATIONS...THUS NOT UNDER NWS
QUALITY CONTROL.  THEY ALSO DO NOT REPORT WEATHER SUCH
AS PRECIPITATION OR FOG.

IAZ001>003-012>014-020>022-031>034-043>046-310600-
   NORTHWEST IOWA

CITY           SKY/WX    TMP DP  RH WIND       PRES   REMARKS
CARROLL *      FOG       59  59 100 S5        29.99S VSB 1/2
CHEROKEE *     CLEAR     64  64 100 S5        29.96S FOG
DENISON *      CLOUDY    68  66  94 S7G14     29.96S
LE MARS *      CLEAR     64  64 100 S8        29.95S
ORANGE CITY *  CLEAR     64  64 100 S8        29.94S FOG
SHELDON *      CLOUDY    64  64 100 S7        29.93F FOG
SPENCER        FOG       62  60  93 S5        29.96S VSB 3/4
STORM LAKE *   CLEAR     64  64 100 S9        29.98S FOG
$$

IAZ055>058-069>071-079>083-090>094-310600-
   SOUTHWEST IOWA

CITY           SKY/WX    TMP DP  RH WIND       PRES   REMARKS
ATLANTIC *     CLOUDY    61  61 100 CALM      30.00R FOG
AUDUBON *      FOG       59  57  94 CALM      30.01S VSB 1/4
CLARINDA *     FOG       64  64 100 CALM      30.01R VSB 1/2
COUNCIL BLFS *   N/A     66  66 100 SE5       29.98S
CRESTON *      CLEAR     66  66 100 SE5       30.02R FOG
HARLAN  *      FOG       61 N/A N/A CALM      30.02S VSB 0
LAMONI         CLEAR     72  67  84 SE3       30.00S
RED OAK *      MOCLDY    64  64 100 CALM      29.99S FOG
SHENANDOAH *   PTCLDY    64  64 100 CALM      29.99S FOG
$$

IAZ047>049-059>061-072>074-084-310600-
   CENTRAL IOWA

CITY           SKY/WX    TMP DP  RH WIND       PRES   REMARKS
AMES           PTCLDY    64  64 100 SE6       30.00R FOG
ANKENY *       FOG       66  66 100 CALM      30.00R VSB<1/4
CHARITON *     CLOUDY    68  66  94 SE5       30.01S FOG
DES MOINES     PTCLDY    69  66  90 S6        29.99S
GRINNELL*      CLEAR     64  63  94 E3        30.02R FOG
KNOXVILLE *    CLEAR     68  66  94 SE5       30.00R FOG
MARSHALLTOWN   CLEAR     63  62  97 SE6       30.00R FOG
PELLA *        CLEAR     66  66 100 SE3       30.02R FOG
PERRY *        FOG       64  64 100 S3        30.00R VSB 1/4
$$

IAZ004>006-015-016-023>025-035-036-310600-
   NORTH CENTRAL IOWA

CITY           SKY/WX    TMP DP  RH WIND       PRES   REMARKS
ALGONA *       MOCLDY    64  64 100 S8        29.98S FOG
CLARION *      CLEAR     61  59  94 S6        30.00R FOG
ESTHERVILLE    CLEAR     62  62 100 S8        29.96S FOG
FORT DODGE *   CLEAR     64  61  88 CALM      29.99S
MASON CITY     CLEAR     60  59  96 S7        30.01R FOG
FOREST CITY *  CLEAR     59  59 100 S5        29.99S FOG
IOWA FALLS *     N/A     63  61  94 S3        30.01S FOG
$$

IAZ007>011-017>019-026>030-037>042-050>054-066-310600-
   NORTHEAST IOWA

CITY           SKY/WX    TMP DP  RH WIND       PRES   REMARKS
CEDAR RAPIDS   CLEAR     63  63 100 SE5       30.01S FOG
CHARLES CITY * CLEAR     63  63 100 S5        30.01S FOG
CLINTON *      CLEAR     63  59  88 E5        30.05S
DECORAH *      CLOUDY    63  63 100 S6        30.01R
DUBUQUE        CLEAR     61  60  97 S3        30.04R
MONTICELLO *   CLEAR     59  59 100 CALM      30.02S FOG
OELWEIN *      CLEAR     61  61 100 SE5       30.02S FOG
WATERLOO       CLEAR     63  62  97 SE5       30.00S FOG
$$

IAZ064-065-067-068-078-310600-
   EAST CENTRAL IOWA

CITY           SKY/WX    TMP DP  RH WIND       PRES   REMARKS
DAVENPORT      CLEAR     64  62  93 SE5       30.03S
IOWA CITY      CLEAR     64  62  93 CALM      30.03S FOG
MT. PLEASANT * CLEAR     68  64  88 CALM      30.02R FOG
MUSCATINE *    FOG       64  63  94 CALM      30.02S VSB 0
QUAD CITIES    CLEAR     63  61  93 CALM      30.02S FOG
$$

IAZ062-063-075>077-085>089-095>099-310600-
   SOUTHEAST IOWA

CITY           SKY/WX    TMP DP  RH WIND       PRES   REMARKS
BURLINGTON     CLEAR     70  67  90 E3        30.01S
FAIRFIELD *    CLEAR     66  64  94 CALM      30.01S FOG
FORT MADISON * CLEAR     66  66 100 E3        30.02R
KEOKUK *       CLEAR     72  68  88 SE7       30.00S
OSKALOOSA *      N/A     64  64 100 SE5       30.02S FOG
CENTERVILLE *  CLEAR     66  66 100 E3        30.03S
OTTUMWA        CLEAR     67  66  97 E6        29.99S
WASHINGTON *     N/A    N/A N/A N/A MISG        N/A
$$

ABBREVIATIONS USED IN REMARKS
   TC - TEMPERATURES IN CELSIUS
  WCI - WIND CHILL INDEX
   HX - HEAT INDEX
  VSB - VISIBILITY
$$



USA.gov is the U.S. government's official web portal to all federal, state and local government web resources and services.